1498442400.36,61965,21.69,73852.5,5.37,4.45,4.45,0,*71
1498442401.57,61966,21.69,73852.5,5.35,4.37,4.41,0,*71
1498442402.79,61967,21.69,73850.5,5.35,4.37,4.37,0,*71
1498442404.0,61968,21.69,73852.0,5.35,4.37,4.37,0,*7E
1498442405.18,61969,21.69,73850.8,5.33,4.37,4.37,0,*79
1498442406.39,61970,21.69,73850.8,5.35,4.41,4.37,0,*76
1498442407.6,61971,21.69,73852.0,5.35,4.41,4.41,0,*76
1498442408.8,61972,21.69,73850.3,5.35,4.49,4.37,0,*7C
1498442410.01,61973,21.69,73852.3,5.35,4.41,4.37,0,*75
1498442411.22,61974,21.69,73852.0,5.35,4.41,4.41,0,*73
1498442412.46,61975,21.69,73850.0,5.35,4.37,4.31,0,*74
1498442413.67,61976,21.69,73850.5,5.35,4.37,4.37,0,*71
1498442414.91,61977,21.69,73852.8,5.35,4.31,4.37,0,*76
1498442416.12,61978,21.69,73852.8,5.35,4.41,4.41,0,*7F
1498442417.32,61979,21.69,73852.8,5.35,4.49,4.41,0,*76
1498442418.53,61980,21.69,73854.8,5.35,4.37,4.49,0,*71
1498442419.73,61981,21.69,73854.5,5.35,4.41,4.41,0,*79
1498442420.95,61982,21.69,73854.3,5.35,4.37,4.37,0,*7A
1498442422.13,61983,21.69,73852.3,5.33,4.37,4.37,0,*7D
1498442423.32,61984,21.69,73852.0,5.33,4.37,4.37,0,*7A
1498442424.52,61985,21.69,73854.0,5.33,4.31,4.37,0,*7D
1498442425.73,61986,21.69,73854.5,5.33,4.31,4.37,0,*7E
1498442426.95,61987,21.69,73850.8,5.35,4.37,4.37,0,*7F
1498442428.13,61988,21.69,73854.0,5.33,4.37,4.37,0,*76
1498442429.32,61989,21.69,73854.8,5.33,4.37,4.37,0,*77
1498442430.53,61990,21.69,73850.8,5.35,4.37,4.37,0,*79
1498442431.74,61991,21.69,73856.0,5.33,4.31,4.37,0,*78
1498442432.97,61992,21.69,73856.8,5.33,4.31,4.31,0,*7D
1498442434.2,61993,21.69,73854.8,5.33,4.31,4.31,0,*7C
1498442435.4,61994,21.69,73850.5,5.33,4.31,4.27,0,*7C
1498442436.6,61995,21.69,73852.0,5.33,4.31,4.19,0,*70
1498442437.8,61996,21.69,73852.3,5.33,4.31,4.27,0,*7E
1498442439.03,61997,21.69,73856.8,5.33,4.31,4.31,0,*78
1498442440.23,61998,21.69,73852.5,5.33,4.37,4.31,0,*71
1498442441.44,61999,21.69,73854.0,5.33,4.37,4.31,0,*70
1498442442.63,62000,21.69,73852.5,5.33,4.37,4.37,0,*7C
1498442443.83,62001,21.69,73852.5,5.31,4.33,4.33,0,*7F
1498442445.04,62002,21.69,73852.3,5.31,4.33,4.33,0,*7C
1498442446.25,62003,21.69,73852.5,5.31,4.33,4.33,0,*7D
1498442447.43,62004,21.69,73850.5,5.29,4.33,4.37,0,*77
1498442448.63,62005,21.69,73852.0,5.31,4.33,4.45,0,*7A
1498442449.84,62006,21.69,73854.0,5.31,4.33,4.37,0,*7C
1498442451.04,62007,21.69,73852.5,5.31,4.45,4.37,0,*7C
1498442452.22,62008,21.69,73854.0,5.29,4.33,4.37,0,*7B
1498442453.43,62009,21.69,73852.5,5.31,4.37,4.37,0,*77
1498442454.62,62010,21.69,73854.0,5.29,4.37,4.37,0,*76
1498442455.8,62011,21.69,73854.8,5.29,4.33,4.33,0,*77
1498442457.0,62012,21.69,73856.5,5.31,4.45,4.33,0,*7C
1498442458.21,62013,21.69,73852.8,5.31,4.33,4.33,0,*7C
1498442459.42,62014,21.69,73852.3,5.31,4.37,4.37,0,*7B
1498442460.6,62015,21.69,73854.0,5.29,4.45,4.33,0,*72
1498442461.78,62016,21.69,73854.3,5.29,4.37,4.33,0,*74
1498442462.99,62017,21.69,73854.0,5.31,4.33,4.33,0,*78
1498442464.17,62018,21.69,73854.8,5.29,4.33,4.33,0,*7E
1498442465.35,62019,21.69,73852.3,5.29,4.33,4.33,0,*7F
1498442466.53,62020,21.69,73854.8,5.29,4.27,4.33,0,*70
1498442467.73,62021,21.69,73854.3,5.31,4.33,4.27,0,*78
1498442468.91,62022,21.69,73854.0,5.29,4.27,4.33,0,*72
1498442470.08,62023,21.69,73854.3,5.29,4.27,4.27,0,*76
1498442471.25,62024,21.69,73854.0,5.29,4.27,4.27,0,*71
1498442472.42,62025,21.69,73848.5,5.29,4.33,4.27,0,*75
1498442473.6,62026,21.69,73852.3,5.29,4.27,4.27,0,*73
1498442474.78,62027,21.69,73854.8,5.29,4.27,4.33,0,*77
1498442475.96,62028,21.69,73852.5,5.29,4.33,4.33,0,*7D
1498442477.14,62029,21.69,73850.8,5.29,4.33,4.33,0,*7C
1498442478.32,62030,21.69,73850.3,5.29,4.33,4.33,0,*74
1498442479.5,62031,21.69,73852.5,5.29,4.37,4.33,0,*71
1498442480.68,62032,21.69,73854.0,5.29,4.45,4.33,0,*77
1498442481.86,62033,21.69,73852.5,5.25,4.33,4.23,0,*7A
1498442483.04,62034,21.69,73850.8,5.29,4.37,4.37,0,*70
1498442484.22,62035,21.69,73850.8,5.29,4.37,4.33,0,*75
1498442485.41,62036,21.69,73852.3,5.29,4.37,4.37,0,*72
1498442486.62,62037,21.69,73850.5,5.31,4.37,4.33,0,*7E
1498442487.83,62038,21.69,73854.3,5.31,4.37,4.37,0,*75
1498442489.01,62039,21.69,73852.0,5.29,4.37,4.33,0,*79
1498442490.18,62040,21.69,73850.8,5.29,4.45,4.27,0,*77
1498442491.37,62041,21.69,73848.8,5.29,4.37,4.33,0,*76
1498442492.54,62042,21.69,73852.0,5.29,4.33,4.33,0,*71
1498442493.78,62043,21.69,73852.3,5.25,4.31,4.31,0,*7C
1498442494.96,62044,21.69,73852.5,5.25,4.23,4.23,0,*7B
1498442496.13,62045,21.69,73850.3,5.25,4.11,4.11,0,*7A
1498442497.31,62046,21.69,73852.8,5.25,4.11,4.19,0,*71
1498442498.49,62047,21.69,73850.5,5.25,4.11,4.11,0,*78
1498442499.66,62048,21.69,73850.3,5.25,4.11,4.11,0,*77
1498442500.84,62049,21.69,73850.8,5.23,4.15,4.15,0,*70
1498442502.02,62050,21.69,73854.3,5.25,4.11,4.11,0,*7E
1498442503.19,62051,21.69,73852.3,5.25,4.19,4.19,0,*7F
1498442504.36,62052,21.69,73852.5,5.25,4.19,4.11,0,*74
1498442505.54,62053,21.69,73854.0,5.23,4.15,4.07,0,*78
1498442506.72,62054,21.69,73850.5,5.23,4.15,4.15,0,*7C
1498442507.89,62055,21.69,73854.0,5.25,4.19,4.23,0,*72
1498442509.06,62056,21.69,73854.8,5.23,4.19,4.15,0,*72
1498442510.24,62057,21.69,73854.3,5.23,4.27,4.15,0,*7E
1498442511.41,62058,21.69,73852.3,5.23,4.27,4.27,0,*70
1498442512.58,62059,21.69,73854.8,5.23,4.19,4.27,0,*7C
1498442513.75,62060,21.69,73852.3,5.23,4.19,4.19,0,*7B
1498442514.92,62061,21.69,73854.5,5.23,4.19,4.19,0,*7A
1498442516.09,62062,21.69,73852.0,5.25,4.23,4.23,0,*7F
1498442517.27,62063,21.69,73854.0,5.23,4.15,4.07,0,*7B
1498442518.45,62064,21.69,73854.8,5.23,4.15,4.15,0,*7F
1498442519.62,62065,21.69,73854.3,5.23,4.15,4.07,0,*7D
1498442520.8,62066,21.69,73854.5,5.23,4.15,4.15,0,*7D
1498442521.97,62067,21.69,73858.3,5.23,4.15,4.19,0,*70
1498442523.14,62068,21.69,73852.5,5.23,4.27,4.19,0,*7E
1498442524.31,62069,21.69,73852.3,5.23,4.19,4.19,0,*72
1498442525.48,62070,21.69,73856.3,5.23,4.19,4.27,0,*77
1498442526.67,62071,21.69,73854.3,5.21,4.19,4.19,0,*79
1498442527.84,62072,21.69,73852.5,5.23,4.19,4.15,0,*74
1498442529.02,62073,21.69,73854.3,5.23,4.27,4.15,0,*78
1498442530.19,62074,21.69,73854.8,5.23,4.27,4.19,0,*73
1498442531.38,62075,21.69,73856.0,5.21,4.19,4.19,0,*7D
1498442532.56,62076,21.69,73850.3,5.19,4.15,4.15,0,*75
1498442533.76,62077,21.69,73850.5,5.21,4.19,4.15,0,*73
1498442534.95,62078,21.69,73854.5,5.21,4.19,4.15,0,*7C
1498442536.15,62079,21.69,73852.5,5.21,4.27,4.19,0,*7C
1498442537.34,62080,21.69,73852.3,5.21,4.27,4.19,0,*7A
1498442538.56,62081,21.69,73850.8,5.21,4.31,4.27,0,*71
1498442539.76,62082,21.69,73848.3,5.21,4.27,4.27,0,*75
1498442540.98,62083,21.69,73852.5,5.21,4.31,4.27,0,*73
1498442542.2,62084,21.69,73854.0,5.21,4.31,4.19,0,*79
1498442543.46,62085,21.69,73854.0,5.21,4.31,4.31,0,*72
1498442544.71,62086,21.69,73856.0,5.21,4.31,4.31,0,*71
1498442545.96,62087,21.69,73852.5,5.21,4.31,4.31,0,*70
1498442547.22,62088,21.69,73852.5,5.21,4.31,4.31,0,*7F
1498442548.47,62089,21.69,73852.5,5.21,4.31,4.31,0,*7E
1498442549.65,62090,21.69,73852.3,5.19,4.27,4.33,0,*78
1498442550.89,62091,21.69,73852.0,5.21,4.31,4.37,0,*71
1498442552.12,62092,21.69,73852.3,5.21,4.37,4.31,0,*72
1498442553.3,62093,21.69,73854.8,5.19,4.33,4.33,0,*7E
1498442554.53,62094,21.69,73852.3,5.21,4.31,4.41,0,*75
1498442555.71,62095,21.69,73854.3,5.19,4.33,4.37,0,*7C
1498442556.9,62096,21.69,73848.3,5.19,4.33,4.33,0,*7B
1498442558.08,62097,21.69,73852.5,5.19,4.33,4.33,0,*7A
1498442559.29,62098,21.69,73852.0,5.21,4.37,4.37,0,*7E
1498442560.47,62099,21.69,73848.5,5.19,4.33,4.37,0,*70
1498442561.67,62100,21.69,73852.5,5.21,4.41,4.37,0,*7F
1498442562.85,62101,21.69,73848.3,5.19,4.33,4.37,0,*70
1498442564.06,62102,21.69,73854.8,5.21,4.37,4.41,0,*7D
1498442565.25,62103,21.69,73852.3,5.19,4.37,4.37,0,*76
1498442566.42,62104,21.69,73854.5,5.19,4.41,4.49,0,*79
1498442567.62,62105,21.69,73852.5,5.21,4.49,4.41,0,*73
1498442568.82,62106,21.69,73854.5,5.21,4.49,4.37,0,*71
1498442570.0,62107,21.69,73854.0,5.19,4.37,4.45,0,*77
1498442571.18,62108,21.69,73848.5,5.19,4.37,4.45,0,*78
1498442572.36,62109,21.69,73852.5,5.19,4.41,4.49,0,*74
1498442573.55,62110,21.69,73852.5,5.21,4.49,4.49,0,*7F
1498442574.74,62111,21.69,73852.5,5.21,4.49,4.41,0,*76
1498442575.92,62112,21.69,73850.8,5.19,4.41,4.49,0,*7E
1498442577.12,62113,21.69,73854.0,5.21,4.41,4.33,0,*79
1498442578.31,62114,21.69,73854.8,5.21,4.41,4.49,0,*73
1498442579.51,62115,21.69,73854.5,5.21,4.41,4.41,0,*7A
1498442580.72,62116,21.69,73850.0,5.21,4.41,4.37,0,*78
1498442581.9,62117,21.69,73854.0,5.19,4.33,4.33,0,*73
1498442583.11,62118,21.69,73854.3,5.21,4.37,4.37,0,*77
1498442584.29,62119,21.69,73852.5,5.19,4.33,4.33,0,*7D
1498442585.5,62120,21.69,73848.8,5.21,4.37,4.37,0,*7C
1498442586.7,62121,21.69,73848.5,5.21,4.41,4.37,0,*7C
1498442587.9,62122,21.69,73848.3,5.21,4.41,4.37,0,*7F
1498442589.08,62123,21.69,73850.3,5.19,4.33,4.33,0,*74
1498442590.26,62124,21.69,73850.0,5.19,4.45,4.33,0,*72
1498442591.46,62125,21.69,73852.3,5.21,4.41,4.37,0,*78
1498442592.66,62126,21.69,73850.3,5.21,4.41,4.37,0,*7B
1498442593.86,62127,21.69,73848.8,5.21,4.45,4.37,0,*7E
1498442595.06,62128,21.69,73848.3,5.21,4.49,4.41,0,*7C
1498442596.26,62129,21.69,73850.8,5.21,4.41,4.37,0,*74
1498442597.45,62130,21.69,73850.5,5.19,4.37,4.37,0,*76
1498442598.64,62131,21.69,73850.0,5.19,4.37,4.37,0,*77
1498442599.84,62132,21.69,73850.5,5.21,4.37,4.41,0,*7E
1498442601.03,62133,21.69,73850.0,5.19,4.37,4.37,0,*75
1498442602.22,62134,21.69,73850.5,5.19,4.37,4.37,0,*72
1498442603.42,62135,21.69,73854.0,5.21,4.41,4.41,0,*78
1498442604.62,62136,21.69,73848.8,5.21,4.49,4.41,0,*73
1498442605.8,62137,21.69,73848.3,5.19,4.37,4.33,0,*75
1498442607.03,62138,21.69,73850.5,5.21,4.37,4.31,0,*73
1498442608.21,62139,21.69,73850.8,5.19,4.33,4.27,0,*7A
1498442609.44,62140,21.69,73850.8,5.21,4.37,4.31,0,*7C
1498442610.64,62141,21.69,73850.5,5.21,4.37,4.41,0,*7A
1498442611.85,62142,21.69,73850.0,5.21,4.37,4.37,0,*78
1498442613.04,62143,21.69,73852.3,5.19,4.37,4.33,0,*76
1498442614.24,62144,21.69,73854.3,5.21,4.41,4.37,0,*7F
1498442615.42,62145,21.69,73850.0,5.19,4.33,4.33,0,*74
1498442616.6,62146,21.69,73854.8,5.19,4.27,4.27,0,*77
1498442617.77,62147,21.69,73848.5,5.19,4.33,4.27,0,*73
1498442618.95,62148,21.69,73852.0,5.19,4.33,4.33,0,*79
1498442620.14,62149,21.69,73852.5,5.19,4.33,4.33,0,*78
1498442621.31,62150,21.69,73848.3,5.19,4.33,4.27,0,*75
1498442622.49,62151,21.69,73852.3,5.19,4.33,4.33,0,*71
1498442623.68,62152,21.69,73854.3,5.19,4.37,4.33,0,*76
1498442624.86,62153,21.69,73852.0,5.19,4.27,4.27,0,*73
1498442626.04,62154,21.69,73852.8,5.19,4.37,4.37,0,*74
1498442627.22,62155,21.69,73850.8,5.19,4.33,4.27,0,*70
1498442628.4,62156,21.69,73854.0,5.19,4.33,4.33,0,*76
1498442629.59,62157,21.69,73854.0,5.19,4.33,4.33,0,*77
1498442630.79,62158,21.69,73854.0,5.21,4.37,4.33,0,*77
1498442631.97,62159,21.69,73850.5,5.19,4.33,4.37,0,*7D
1498442633.16,62160,21.69,73852.3,5.19,4.33,4.37,0,*77
1498442634.35,62161,21.69,73854.5,5.19,4.37,4.33,0,*76
1498442635.53,62162,21.69,73848.8,5.19,4.37,4.37,0,*71
1498442636.72,62163,21.69,73848.5,5.19,4.33,4.37,0,*74
1498442637.9,62164,21.69,73850.0,5.19,4.37,4.45,0,*72
1498442639.09,62165,21.69,73848.3,5.19,4.37,4.33,0,*72
1498442640.27,62166,21.69,73850.0,5.19,4.37,4.37,0,*75
1498442641.45,62167,21.69,73850.0,5.19,4.33,4.27,0,*71
1498442642.63,62168,21.69,73850.3,5.19,4.23,4.23,0,*7B
1498442643.8,62169,21.69,73852.0,5.19,4.27,4.23,0,*7E
1498442644.98,62170,21.69,73850.0,5.19,4.27,4.27,0,*72
1498442646.16,62171,21.69,73850.3,5.19,4.27,4.33,0,*76
1498442647.37,62172,21.69,73854.0,5.17,4.33,4.33,0,*7E
1498442648.56,62173,21.69,73852.0,5.19,4.37,4.33,0,*75
1498442649.74,62174,21.69,73850.0,5.19,4.37,4.33,0,*72
1498442650.93,62175,21.69,73854.0,5.19,4.37,4.37,0,*77
1498442652.13,62176,21.69,73852.3,5.21,4.45,4.37,0,*7A
1498442653.32,62177,21.69,73850.5,5.19,4.37,4.37,0,*75
1498442654.5,62178,21.69,73854.3,5.19,4.37,4.37,0,*7A
1498442655.68,62179,21.69,73854.8,5.19,4.45,4.37,0,*7E
1498442656.86,62180,21.69,73850.3,5.19,4.45,4.45,0,*7D
1498442658.04,62181,21.69,73846.8,5.19,4.45,4.45,0,*7C
1498442659.23,62182,21.69,73850.0,5.21,4.41,4.49,0,*7C
1498442660.43,62183,21.69,73848.5,5.17,4.45,4.45,0,*70
1498442661.63,62184,21.69,73846.3,5.17,4.45,4.45,0,*77
1498442662.81,62185,21.69,73844.0,5.19,4.37,4.45,0,*7D
1498442664.01,62186,21.69,73848.0,5.21,4.41,4.49,0,*78
1498442665.18,62187,21.69,73846.5,5.19,4.45,4.45,0,*7A
1498442666.36,62188,21.69,73848.0,5.19,4.45,4.49,0,*79
1498442667.55,62189,21.69,73848.0,5.21,4.49,4.41,0,*77
1498442668.73,62190,21.69,73850.8,5.19,4.45,4.45,0,*7C
1498442669.92,62191,21.69,73850.8,5.21,4.49,4.45,0,*7A
1498442671.12,62192,21.69,73850.8,5.21,4.49,4.41,0,*7D
1498442672.3,62193,21.69,73848.8,5.19,4.45,4.45,0,*7F
1498442673.47,62194,21.69,73848.8,5.19,4.45,4.49,0,*74
1498442674.65,62195,21.69,73850.0,5.19,4.37,4.45,0,*7C
1498442675.85,62196,21.69,73850.3,5.21,4.41,4.49,0,*79
1498442677.04,62197,21.69,73850.0,5.21,4.49,4.49,0,*70
1498442678.23,62198,21.69,73850.5,5.21,4.49,4.49,0,*7F
1498442679.42,62199,21.69,73848.5,5.21,4.49,4.49,0,*7E
1498442680.59,62200,21.69,73854.0,5.19,4.45,4.45,0,*76
1498442681.77,62201,21.69,73852.3,5.19,4.45,4.45,0,*77
1498442682.96,62202,21.69,73848.3,5.21,4.49,4.45,0,*73
1498442684.13,62203,21.69,73856.0,5.19,4.49,4.49,0,*75
1498442685.31,62204,21.69,73848.3,5.19,4.45,4.37,0,*77
1498442686.5,62205,21.69,73852.3,5.21,4.49,4.49,0,*78
1498442687.67,62206,21.69,73850.8,5.19,4.49,4.49,0,*70
1498442688.85,62207,21.69,73848.3,5.19,4.45,4.37,0,*74
1498442690.05,62208,21.69,73846.5,5.21,4.41,4.41,0,*75
1498442691.24,62209,21.69,73846.0,5.19,4.37,4.37,0,*7F
1498442692.44,62210,21.69,73848.0,5.21,4.41,4.37,0,*7D
1498442693.64,62211,21.69,73850.5,5.21,4.41,4.33,0,*78
1498442694.82,62212,21.69,73848.0,5.19,4.45,4.33,0,*74
1498442696.01,62213,21.69,73848.5,5.19,4.37,4.37,0,*74
1498442697.19,62214,21.69,73848.8,5.19,4.41,4.41,0,*73
1498442698.39,62215,21.69,73848.0,5.21,4.37,4.49,0,*70
1498442699.59,62216,21.69,73848.3,5.21,4.49,4.41,0,*72
1498442700.78,62217,21.69,73846.3,5.21,4.41,4.49,0,*73
1498442701.96,62218,21.69,73846.3,5.19,4.45,4.45,0,*7F
1498442703.14,62219,21.69,73848.8,5.19,4.45,4.45,0,*7E
1498442704.32,62220,21.69,73848.0,5.21,4.49,4.49,0,*7F
1498442705.52,62221,21.69,73848.3,5.21,4.49,4.49,0,*7E
1498442706.71,62222,21.69,73844.3,5.21,4.49,4.41,0,*75
1498442707.91,62223,21.69,73844.5,5.21,4.49,4.41,0,*74
1498442709.1,62224,21.69,73854.0,5.21,4.49,4.49,0,*7B
1498442710.29,62225,21.69,73850.0,5.21,4.49,4.49,0,*7A
1498442711.46,62226,21.69,73850.5,5.19,4.45,4.45,0,*72
1498442712.64,62227,21.69,73844.0,5.19,4.45,4.45,0,*73
1498442713.83,62228,21.69,73848.0,5.21,4.49,4.49,0,*77
1498442715.02,62229,21.69,73852.0,5.21,4.49,4.49,0,*76
1498442716.21,62230,21.69,73850.0,5.21,4.49,4.49,0,*7E
1498442717.4,62231,21.69,73850.8,5.21,4.49,4.49,0,*7F
1498442718.59,62232,21.69,73848.5,5.21,4.49,4.49,0,*7C
1498442719.78,62233,21.69,73854.5,5.21,4.49,4.53,0,*76
1498442720.98,62234,21.69,73850.0,5.21,4.53,4.53,0,*7A
1498442722.15,62235,21.69,73850.0,5.19,4.49,4.49,0,*70
1498442723.33,62236,21.69,73848.5,5.23,4.53,4.53,0,*7A
1498442724.5,62237,21.69,73852.0,5.19,4.49,4.49,0,*72
1498442725.7,62238,21.69,73848.3,5.21,4.53,4.53,0,*76
1498442726.9,62239,21.69,73850.8,5.21,4.53,4.53,0,*77
1498442728.1,62240,21.69,73852.0,5.21,4.53,4.57,0,*7D
1498442729.31,62241,21.69,73850.3,5.21,4.53,4.57,0,*7C
1498442730.51,62242,21.69,73852.3,5.21,4.53,4.53,0,*7B
1498442731.71,62243,21.69,73848.5,5.21,4.53,4.53,0,*7A
1498442732.91,62244,21.69,73852.5,5.21,4.53,4.53,0,*7D
1498442734.11,62245,21.69,73852.3,5.21,4.53,4.53,0,*7C
1498442735.31,62246,21.69,73854.8,5.21,4.53,4.57,0,*7B
1498442736.51,62247,21.69,73852.3,5.21,4.57,4.57,0,*7E
1498442737.71,62248,21.69,73854.0,5.21,4.53,4.53,0,*71
1498442738.91,62249,21.69,73848.8,5.21,4.57,4.57,0,*70
1498442740.11,62250,21.69,73852.8,5.21,4.53,4.57,0,*7C
1498442741.29,62251,21.69,73854.0,5.23,4.57,4.57,0,*7B
1498442742.47,62252,21.69,73854.0,5.23,4.53,4.57,0,*7C
1498442743.65,62253,21.69,73856.0,5.23,4.53,4.57,0,*7D
1498442744.82,62254,21.69,73852.0,5.23,4.57,4.57,0,*7E
1498442746.0,62255,21.69,73852.3,5.23,4.53,4.53,0,*7F
1498442747.18,62256,21.69,73854.0,5.23,4.53,4.57,0,*78
1498442748.36,62257,21.69,73850.8,5.23,4.57,4.57,0,*7D
1498442749.53,62258,21.69,73854.5,5.23,4.57,4.57,0,*72
1498442750.71,62259,21.69,73852.5,5.23,4.57,4.53,0,*77
1498442751.88,62260,21.69,73854.0,5.23,4.57,4.57,0,*79
1498442753.09,62261,21.69,73852.5,5.23,4.53,4.63,0,*7B
1498442754.27,62262,21.69,73854.8,5.25,4.53,4.57,0,*79
1498442755.45,62263,21.69,73854.3,5.23,4.53,4.53,0,*7A
1498442756.68,62264,21.69,73854.8,5.25,4.59,4.59,0,*7B
1498442757.91,62265,21.69,73852.8,5.25,4.59,4.59,0,*7A
1498442759.12,62266,21.69,73852.3,5.25,4.59,4.57,0,*77
1498442760.29,62267,21.69,73854.3,5.23,4.53,4.53,0,*7E
1498442761.47,62268,21.69,73850.5,5.23,4.57,4.57,0,*71
1498442762.67,62269,21.69,73852.5,5.25,4.57,4.59,0,*78
1498442763.9,62270,21.69,73854.8,5.25,4.59,4.59,0,*7E
1498442765.1,62271,21.69,73854.8,5.25,4.57,4.59,0,*71
1498442766.3,62272,21.69,73852.0,5.23,4.57,4.63,0,*7D
1498442767.51,62273,21.69,73848.5,5.25,4.59,4.57,0,*73
1498442768.69,62274,21.69,73854.0,5.23,4.57,4.57,0,*7C
1498442769.92,62275,21.69,73854.0,5.25,4.59,4.59,0,*7B
1498442771.12,62276,21.69,73854.0,5.25,4.57,4.59,0,*76
1498442772.35,62277,21.69,73852.5,5.25,4.59,4.59,0,*79
1498442773.55,62278,21.69,73848.8,5.23,4.63,4.53,0,*73
1498442774.78,62279,21.69,73852.8,5.25,4.59,4.59,0,*77
1498442775.96,62280,21.69,73854.8,5.25,4.57,4.57,0,*71
1498442777.19,62281,21.69,73852.5,5.25,4.59,4.59,0,*70
1498442778.42,62282,21.69,73854.8,5.25,4.59,4.59,0,*73
1498442779.62,62283,21.69,73856.5,5.25,4.57,4.59,0,*7C
1498442780.82,62284,21.69,73852.5,5.25,4.57,4.59,0,*7B
1498442782.02,62285,21.69,73852.8,5.25,4.57,4.59,0,*7A
1498442783.2,62286,21.69,73854.8,5.25,4.57,4.57,0,*77
1498442784.4,62287,21.69,73854.3,5.25,4.57,4.59,0,*78
1498442785.61,62288,21.69,73858.5,5.25,4.59,4.57,0,*77
1498442786.79,62289,21.69,73856.8,5.25,4.57,4.57,0,*78
1498442787.97,62290,21.69,73856.5,5.23,4.53,4.53,0,*76
1498442789.15,62291,21.69,73854.8,5.25,4.57,4.57,0,*71
1498442790.36,62292,21.69,73850.8,5.25,4.59,4.57,0,*7C
1498442791.56,62293,21.69,73852.0,5.25,4.57,4.59,0,*7D
1498442792.74,62294,21.69,73852.3,5.25,4.57,4.57,0,*74
1498442793.92,62295,21.69,73856.8,5.25,4.57,4.57,0,*75
1498442795.1,62296,21.69,73852.0,5.25,4.57,4.57,0,*76
1498442796.32,62297,21.69,73854.3,5.29,4.59,4.59,0,*7B
1498442797.55,62298,21.69,73852.5,5.29,4.59,4.59,0,*74
1498442798.8,62299,21.69,73854.0,5.31,4.59,4.59,0,*7C
1498442799.98,62300,21.69,73854.5,5.25,4.57,4.57,0,*78
1498442801.16,62301,21.69,73854.3,5.25,4.57,4.57,0,*79
1498442802.34,62302,21.69,73854.5,5.25,4.57,4.57,0,*7A
1498442803.57,62303,21.69,73854.8,5.33,4.59,4.63,0,*75
1498442804.8,62304,21.69,73854.3,5.29,4.59,4.59,0,*70
1498442806.03,62305,21.69,73856.5,5.29,4.59,4.59,0,*71
1498442807.21,62306,21.69,73854.0,5.25,4.57,4.57,0,*7E
1498442808.39,62307,21.69,73852.8,5.25,4.57,4.53,0,*7B
1498442809.59,62308,21.69,73854.8,5.29,4.59,4.57,0,*72
1498442810.8,62309,21.69,73852.8,5.29,4.63,4.57,0,*7A
1498442811.97,62310,21.69,73852.0,5.29,4.57,4.57,0,*75
1498442813.15,62311,21.69,73858.5,5.29,4.57,4.57,0,*74
1498442814.33,62312,21.69,73854.3,5.29,4.57,4.57,0,*77
1498442815.5,62313,21.69,73854.3,5.29,4.57,4.57,0,*76
1498442816.67,62314,21.63,73852.3,5.29,4.49,4.57,0,*7E
1498442817.85,62315,21.69,73854.3,5.29,4.57,4.57,0,*70
1498442819.02,62316,21.69,73852.8,5.29,4.49,4.57,0,*7C
1498442820.19,62317,21.69,73854.3,5.29,4.49,4.49,0,*72
1498442821.36,62318,21.69,73854.8,5.29,4.49,4.57,0,*72
1498442822.53,62319,21.69,73852.0,5.29,4.57,4.49,0,*73
1498442823.71,62320,21.69,73854.3,5.23,4.49,4.41,0,*74
1498442824.89,62321,21.69,73854.3,5.25,4.53,4.45,0,*7C
1498442826.07,62322,21.69,73852.5,5.25,4.53,4.53,0,*78
1498442827.24,62323,21.69,73852.3,5.23,4.49,4.53,0,*74
1498442828.42,62324,21.69,73852.3,5.25,4.45,4.53,0,*79
1498442829.6,62325,21.69,73852.3,5.25,4.53,4.53,0,*7F
1498442830.78,62326,21.69,73854.0,5.25,4.53,4.53,0,*7C
1498442831.96,62327,21.69,73852.0,5.25,4.53,4.53,0,*7D
1498442833.14,62328,21.69,73854.0,5.25,4.53,4.53,0,*72
1498442834.31,62329,21.69,73852.0,5.23,4.49,4.49,0,*75
1498442835.49,62330,21.69,73854.3,5.25,4.53,4.53,0,*7B
1498442836.67,62331,21.63,73852.0,5.25,4.53,4.53,0,*7A
1498442837.84,62332,21.69,73856.8,5.23,4.49,4.49,0,*7F
1498442839.01,62333,21.69,73858.5,5.23,4.41,4.41,0,*7E
1498442840.19,62334,21.69,73852.3,5.25,4.53,4.53,0,*7F
1498442841.38,62335,21.69,73854.0,5.25,4.53,4.53,0,*7E
1498442842.56,62336,21.69,73856.5,5.25,4.53,4.53,0,*7D
1498442843.73,62337,21.69,73854.5,5.25,4.45,4.53,0,*7B
1498442844.91,62338,21.63,73848.8,5.25,4.53,4.53,0,*73
1498442846.1,62339,21.69,73852.3,5.25,4.53,4.53,0,*72
1498442847.28,62340,21.69,73854.8,5.25,4.53,4.45,0,*7B
1498442848.46,62341,21.69,73854.5,5.25,4.53,4.45,0,*7A
1498442849.64,62342,21.69,73854.5,5.25,4.53,4.53,0,*7E
1498442850.81,62343,21.69,73858.3,5.25,4.45,4.53,0,*78
1498442851.99,62344,21.63,73850.0,5.29,4.57,4.49,0,*7B
1498442853.16,62345,21.69,73852.0,5.23,4.41,4.41,0,*7F
1498442854.34,62346,21.69,73858.3,5.25,4.45,4.45,0,*7A
1498442855.52,62347,21.69,73854.3,5.25,4.45,4.45,0,*7B
1498442856.69,62348,21.63,73852.0,5.25,4.45,4.45,0,*74
1498442857.87,62349,21.69,73856.0,5.25,4.45,4.33,0,*74
1498442859.05,62350,21.69,73852.5,5.25,4.41,4.41,0,*7D
1498442860.24,62351,21.69,73854.8,5.25,4.41,4.41,0,*7C
1498442861.44,62352,21.69,73852.3,5.23,4.31,4.41,0,*7E
1498442862.63,62353,21.69,73852.8,5.25,4.33,4.41,0,*7B
1498442863.81,62354,21.69,73858.3,5.25,4.41,4.41,0,*79
1498442864.99,62355,21.69,73854.8,5.25,4.41,4.45,0,*7C
1498442866.16,62356,21.69,73856.8,5.23,4.49,4.41,0,*75
1498442867.34,62357,21.63,73852.5,5.25,4.53,4.45,0,*7D
1498442868.52,62358,21.69,73854.5,5.23,4.41,4.41,0,*73
1498442869.69,62359,21.69,73856.5,5.25,4.45,4.45,0,*74
1498442870.87,62360,21.69,73856.5,5.25,4.53,4.53,0,*7E
1498442872.05,62361,21.69,73852.8,5.25,4.45,4.53,0,*78
1498442873.22,62362,21.69,73858.0,5.23,4.49,4.49,0,*7A
1498442874.39,62363,21.69,73854.3,5.23,4.49,4.49,0,*7B
1498442875.55,62364,21.69,73858.0,5.23,4.49,4.49,0,*7C
1498442876.73,62365,21.69,73858.5,5.25,4.49,4.41,0,*73
1498442877.9,62366,21.63,73854.0,5.23,4.49,4.41,0,*76
1498442879.07,62367,21.69,73854.3,5.23,4.49,4.49,0,*7F
1498442880.24,62368,21.63,73854.0,5.23,4.41,4.49,0,*78
1498442881.42,62369,21.69,73856.8,5.25,4.53,4.53,0,*77
1498442882.6,62370,21.69,73854.0,5.25,4.53,4.45,0,*78
1498442883.77,62371,21.63,73852.8,5.23,4.49,4.41,0,*70
1498442884.95,62372,21.63,73854.0,5.25,4.53,4.53,0,*7D
1498442886.13,62373,21.69,73858.3,5.23,4.49,4.41,0,*72
1498442887.31,62374,21.69,73854.5,5.25,4.53,4.53,0,*7B
1498442888.49,62375,21.69,73856.3,5.25,4.45,4.45,0,*7A
1498442889.66,62376,21.69,73858.5,5.23,4.41,4.41,0,*7F
1498442890.83,62377,21.69,73856.5,5.23,4.49,4.45,0,*72
1498442892.01,62378,21.69,73858.0,5.25,4.53,4.53,0,*77
1498442893.2,62379,21.69,73852.3,5.25,4.53,4.53,0,*76
1498442894.37,62380,21.69,73858.8,5.25,4.41,4.49,0,*78
1498442895.55,62381,21.69,73854.3,5.23,4.41,4.41,0,*77
1498442896.72,62382,21.69,73852.8,5.23,4.41,4.49,0,*7C
1498442897.9,62383,21.63,73852.8,5.25,4.53,4.53,0,*73
1498442899.08,62384,21.69,73854.5,5.25,4.53,4.53,0,*74
1498442900.25,62385,21.69,73856.5,5.23,4.41,4.49,0,*7B
1498442901.43,62386,21.69,73852.3,5.25,4.53,4.53,0,*76
1498442902.61,62387,21.63,73854.8,5.25,4.53,4.53,0,*77
1498442903.79,62388,21.63,73852.8,5.25,4.53,4.53,0,*78
1498442904.97,62389,21.69,73854.3,5.25,4.53,4.53,0,*79
1498442906.14,62390,21.69,73858.0,5.23,4.49,4.53,0,*7C
1498442907.33,62391,21.63,73848.8,5.25,4.53,4.57,0,*74
1498442908.51,62392,21.69,73854.8,5.25,4.53,4.57,0,*77
1498442909.68,62393,21.63,73850.0,5.23,4.49,4.53,0,*7F
1498442910.86,62394,21.69,73850.8,5.25,4.53,4.57,0,*71
1498442912.05,62395,21.63,73850.3,5.25,4.53,4.53,0,*74
1498442913.23,62396,21.63,73850.0,5.25,4.53,4.53,0,*77
1498442914.4,62397,21.69,73854.5,5.23,4.53,4.53,0,*70
1498442915.58,62398,21.63,73850.8,5.25,4.53,4.53,0,*79
1498442916.77,62399,21.69,73852.3,5.25,4.53,4.57,0,*7C
1498442917.95,62400,21.63,73848.5,5.25,4.53,4.57,0,*7B
1498442919.13,62401,21.63,73850.8,5.23,4.53,4.57,0,*7C